QPF
0.00 0.00 0.00 0.00 0.00 0.00 0.00 0.00 0.00 0.00 0.00 0.00 0.00 0.00 0.00 0.00 0.00 0.00 0.00 0.00 0.00 0.00 0.01 0.00 0.00 0.00 0.00 0.00 0.00 0.00 0.00 0.00 0.00 0.00 0.00 0.00 0.00 0.00 0.00 0.01 0.02 0.01 0.00
0.00 0.00 0.00 0.00 0.00 0.00 0.00 0.00 0.00 0.00 0.00 0.00 0.00 0.00 0.00 0.00 0.00 0.00 0.00 0.00 0.00 0.00 0.00 0.00 0.00 0.00 0.00 0.00 0.00 0.00 0.00 0.00 0.00 0.00 0.00 0.00 0.00 0.00 0.01 0.02 0.05 0.02 0.01
0.00 0.00 0.00 0.00 0.00 0.00 0.00 0.01 0.00 0.00 0.00 0.00 0.00 0.00 0.00 0.00 0.00 0.00 0.00 0.00 0.00 0.00 0.00 0.00 0.00 0.00 0.00 0.00 0.00 0.00 0.00 0.00 0.00 0.02 0.07 0.05 0.01 0.00 0.01 0.02 0.04 0.01 0.01
0.00 0.00 0.00 0.00 0.00 0.00 0.00 0.01 0.01 0.00 0.00 0.00 0.01 0.01 0.01 0.01 0.01 0.00 0.00 0.00 0.00 0.00 0.00 0.00 0.00 0.00 0.00 0.00 0.00 0.00 0.00 0.01 0.02 0.07 0.16 0.08 0.02 0.01 0.01 0.02 0.02 0.02 0.02
0.00 0.00 0.00 0.00 0.00 0.00 0.01 0.01 0.01 0.01 0.01 0.01 0.01 0.01 0.01 0.01 0.01 0.01 0.01 0.00 0.00 0.00 0.00 0.00 0.00 0.00 0.00 0.00 0.00 0.00 0.00 0.01 0.04 0.11 0.14 0.09 0.07 0.02 0.01 0.02 0.02 0.02 0.03
0.00 0.00 0.00 0.00 0.00 0.01 0.01 0.01 0.01 0.01 0.02 0.01 0.01 0.02 0.02 0.01 0.01 0.01 0.01 0.01 0.01 0.00 0.00 0.00 0.00 0.00 0.00 0.00 0.00 0.00 0.00 0.01 0.04 0.13 0.11 0.07 0.04 0.01 0.01 0.01 0.02 0.02 0.02
0.00 0.00 0.00 0.00 0.00 0.01 0.01 0.01 0.02 0.02 0.02 0.02 0.03 0.03 0.02 0.01 0.01 0.01 0.01 0.01 0.01 0.00 0.00 0.00 0.00 0.00 0.00 0.00 0.00 0.00 0.00 0.01 0.06 0.20 0.13 0.06 0.06 0.01 0.01 0.01 0.01 0.01 0.01
0.00 0.00 0.00 0.00 0.01 0.01 0.01 0.01 0.01 0.01 0.01 0.03 0.04 0.03 0.02 0.01 0.01 0.01 0.01 0.01 0.01 0.00 0.00 0.00 0.00 0.00 0.00 0.00 0.00 0.00 0.00 0.00 0.03 0.06 0.06 0.07 0.04 0.01 0.01 0.01 0.01 0.00 0.01
0.00 0.00 0.00 0.00 0.00 0.01 0.01 0.01 0.01 0.02 0.03 0.05 0.05 0.03 0.02 0.01 0.01 0.01 0.01 0.01 0.00 0.00 0.00 0.00 0.00 0.00 0.00 0.00 0.00 0.00 0.00 0.00 0.01 0.03 0.06 0.09 0.07 0.02 0.01 0.01 0.01 0.00 0.01
0.01 0.00 0.00 0.00 0.00 0.00 0.00 0.01 0.02 0.03 0.06 0.06 0.04 0.02 0.01 0.01 0.00 0.00 0.00 0.00 0.00 0.00 0.00 0.00 0.00 0.00 0.00 0.00 0.00 0.00 0.00 0.00 0.02 0.04 0.10 0.18 0.10 0.02 0.01 0.01 0.01 0.01 0.01
0.00 0.00 0.01 0.01 0.00 0.00 0.00 0.00 0.01 0.02 0.04 0.03 0.02 0.01 0.00 0.00 0.00 0.00 0.00 0.00 0.00 0.00 0.00 0.00 0.00 0.00 0.00 0.00 0.00 0.00 0.00 0.00 0.04 0.15 0.21 0.17 0.05 0.02 0.01 0.01 0.01 0.01 0.01
0.00 0.00 0.00 0.00 0.00 0.00 0.01 0.00 0.01 0.01 0.00 0.00 0.00 0.00 0.00 0.02 0.02 0.01 0.01 0.00 0.00 0.00 0.00 0.00 0.00 0.00 0.00 0.00 0.01 0.00 0.00 0.00 0.05 0.23 0.25 0.07 0.03 0.02 0.02 0.02 0.01 0.01 0.01
0.00 0.00 0.00 0.00 0.00 0.01 0.02 0.01 0.02 0.02 0.02 0.01 0.04 0.02 0.03 0.04 0.01 0.01 0.02 0.01 0.00 0.00 0.01 0.02 0.01 0.01 0.00 0.01 0.01 0.00 0.00 0.01 0.03 0.13 0.16 0.06 0.03 0.03 0.03 0.02 0.02 0.01 0.01
0.00 0.00 0.00 0.00 0.01 0.01 0.02 0.02 0.02 0.02 0.02 0.03 0.05 0.02 0.04 0.05 0.03 0.02 0.03 0.02 0.02 0.01 0.03 0.03 0.02 0.01 0.00 0.00 0.01 0.00 0.00 0.00 0.02 0.07 0.07 0.04 0.03 0.03 0.03 0.03 0.03 0.02 0.02
0.01 0.00 0.00 0.00 0.01 0.02 0.03 0.03 0.03 0.03 0.03 0.03 0.05 0.03 0.04 0.03 0.02 0.02 0.02 0.02 0.01 0.03 0.04 0.03 0.03 0.03 0.01 0.00 0.01 0.01 0.00 0.00 0.01 0.04 0.06 0.04 0.02 0.02 0.04 0.05 0.04 0.03 0.03
0.03 0.02 0.00 0.00 0.00 0.01 0.02 0.03 0.03 0.03 0.05 0.06 0.05 0.04 0.03 0.03 0.04 0.03 0.03 0.03 0.03 0.04 0.05 0.05 0.04 0.04 0.03 0.02 0.02 0.01 0.01 0.01 0.02 0.05 0.08 0.05 0.03 0.03 0.05 0.05 0.05 0.04 0.04
0.03 0.03 0.00 0.00 0.01 0.01 0.02 0.02 0.04 0.02 0.03 0.04 0.07 0.05 0.03 0.04 0.07 0.04 0.05 0.06 0.05 0.05 0.05 0.05 0.05 0.06 0.06 0.04 0.03 0.02 0.03 0.02 0.05 0.11 0.12 0.10 0.07 0.05 0.05 0.05 0.05 0.05 0.04
0.01 0.02 0.00 0.00 0.01 0.02 0.03 0.03 0.03 0.03 0.06 0.05 0.06 0.07 0.05 0.04 0.05 0.06 0.06 0.08 0.06 0.06 0.08 0.08 0.08 0.09 0.10 0.08 0.07 0.06 0.05 0.05 0.05 0.09 0.10 0.11 0.12 0.10 0.06 0.04 0.04 0.04 0.04
0.00 0.00 0.00 0.00 0.01 0.02 0.03 0.04 0.05 0.06 0.08 0.07 0.08 0.10 0.09 0.05 0.06 0.07 0.08 0.10 0.08 0.09 0.09 0.08 0.10 0.12 0.14 0.13 0.09 0.07 0.06 0.06 0.05 0.04 0.04 0.07 0.11 0.12 0.09 0.06 0.04 0.04 0.04
0.01 0.01 0.01 0.01 0.02 0.02 0.02 0.03 0.05 0.06 0.07 0.06 0.07 0.08 0.09 0.10 0.09 0.11 0.11 0.11 0.09 0.11 0.13 0.12 0.14 0.12 0.14 0.12 0.08 0.07 0.07 0.06 0.06 0.07 0.05 0.06 0.06 0.06 0.07 0.07 0.06 0.05 0.04
0.02 0.03 0.03 0.02 0.02 0.03 0.03 0.04 0.04 0.06 0.07 0.06 0.05 0.06 0.08 0.10 0.11 0.13 0.13 0.15 0.15 0.17 0.18 0.19 0.18 0.16 0.14 0.11 0.12 0.14 0.12 0.08 0.07 0.07 0.06 0.07 0.06 0.05 0.07 0.08 0.07 0.06 0.04
0.04 0.05 0.05 0.05 0.05 0.04 0.05 0.07 0.08 0.09 0.09 0.07 0.06 0.08 0.09 0.09 0.12 0.13 0.14 0.16 0.17 0.21 0.21 0.22 0.21 0.21 0.17 0.14 0.16 0.20 0.22 0.16 0.10 0.07 0.06 0.06 0.06 0.05 0.05 0.06 0.05 0.04 0.03
0.09 0.08 0.08 0.11 0.12 0.12 0.11 0.09 0.10 0.11 0.12 0.09 0.09 0.10 0.11 0.13 0.15 0.17 0.18 0.20 0.20 0.20 0.20 0.21 0.21 0.22 0.21 0.20 0.20 0.22 0.23 0.20 0.14 0.08 0.06 0.04 0.03 0.03 0.03 0.03 0.03 0.03 0.03
0.12 0.13 0.12 0.16 0.18 0.17 0.18 0.19 0.19 0.18 0.18 0.18 0.17 0.16 0.17 0.17 0.19 0.20 0.22 0.22 0.20 0.18 0.18 0.18 0.19 0.20 0.24 0.24 0.19 0.15 0.13 0.11 0.11 0.09 0.05 0.03 0.02 0.02 0.02 0.01 0.02 0.02 0.02
0.09 0.13 0.14 0.16 0.17 0.19 0.22 0.21 0.24 0.26 0.27 0.25 0.24 0.23 0.22 0.21 0.21 0.19 0.17 0.17 0.18 0.19 0.19 0.19 0.19 0.20 0.20 0.17 0.12 0.09 0.08 0.07 0.06 0.06 0.05 0.03 0.02 0.02 0.02 0.02 0.02 0.02 0.01
0.07 0.09 0.12 0.14 0.13 0.14 0.16 0.18 0.20 0.22 0.24 0.25 0.25 0.23 0.21 0.19 0.17 0.15 0.13 0.13 0.13 0.12 0.13 0.13 0.13 0.12 0.11 0.10 0.06 0.04 0.03 0.04 0.04 0.04 0.04 0.03 0.02 0.02 0.02 0.02 0.02 0.02 0.01
MSLP
1009.20 1009.52 1009.99 1010.58 1011.23 1011.88 1012.48 1012.98 1013.37 1013.66 1013.88 1014.07 1014.29 1014.56 1014.88 1015.23 1015.58 1015.89 1016.13 1016.28 1016.36 1016.39 1016.41 1016.45 1016.54 1016.67 1016.84 1017.00 1017.14 1017.24 1017.28 1017.30 1017.31 1017.34 1017.42 1017.56 1017.75 1017.97 1018.19 1018.39 1018.56 1018.69 1018.80
1009.13 1009.57 1010.15 1010.81 1011.50 1012.15 1012.72 1013.18 1013.51 1013.76 1013.96 1014.17 1014.43 1014.76 1015.15 1015.58 1015.99 1016.33 1016.57 1016.71 1016.75 1016.73 1016.71 1016.71 1016.77 1016.89 1017.04 1017.20 1017.34 1017.43 1017.48 1017.49 1017.51 1017.56 1017.65 1017.81 1018.02 1018.25 1018.48 1018.68 1018.84 1018.96 1019.06
1008.85 1009.41 1010.09 1010.83 1011.57 1012.26 1012.84 1013.29 1013.62 1013.86 1014.06 1014.28 1014.57 1014.94 1015.37 1015.82 1016.25 1016.61 1016.85 1016.97 1017.00 1016.98 1016.94 1016.95 1017.00 1017.11 1017.26 1017.40 1017.52 1017.58 1017.61 1017.61 1017.62 1017.67 1017.78 1017.95 1018.18 1018.43 1018.68 1018.90 1019.08 1019.20 1019.31
1008.46 1009.12 1009.89 1010.71 1011.53 1012.27 1012.90 1013.39 1013.74 1014.00 1014.23 1014.46 1014.76 1015.13 1015.56 1016.01 1016.43 1016.77 1017.00 1017.13 1017.18 1017.18 1017.18 1017.21 1017.28 1017.40 1017.53 1017.65 1017.72 1017.74 1017.72 1017.68 1017.66 1017.70 1017.81 1018.00 1018.25 1018.53 1018.81 1019.05 1019.25 1019.41 1019.54
1008.11 1008.84 1009.68 1010.57 1011.46 1012.27 1012.96 1013.51 1013.92 1014.23 1014.48 1014.73 1015.03 1015.38 1015.78 1016.19 1016.57 1016.89 1017.12 1017.26 1017.34 1017.39 1017.45 1017.53 1017.65 1017.78 1017.89 1017.97 1017.98 1017.93 1017.84 1017.75 1017.69 1017.70 1017.80 1018.00 1018.27 1018.58 1018.88 1019.16 1019.39 1019.59 1019.75
1007.92 1008.69 1009.56 1010.50 1011.44 1012.32 1013.08 1013.69 1014.17 1014.53 1014.82 1015.09 1015.38 1015.70 1016.05 1016.41 1016.74 1017.02 1017.24 1017.40 1017.53 1017.64 1017.77 1017.92 1018.07 1018.21 1018.31 1018.33 1018.28 1018.15 1017.97 1017.81 1017.70 1017.68 1017.78 1017.98 1018.27 1018.59 1018.92 1019.23 1019.50 1019.73 1019.93
1007.96 1008.74 1009.62 1010.57 1011.54 1012.45 1013.25 1013.92 1014.45 1014.87 1015.20 1015.49 1015.78 1016.07 1016.38 1016.68 1016.96 1017.20 1017.40 1017.57 1017.74 1017.91 1018.10 1018.30 1018.49 1018.64 1018.71 1018.68 1018.54 1018.33 1018.08 1017.85 1017.70 1017.66 1017.75 1017.96 1018.26 1018.61 1018.96 1019.29 1019.59 1019.84 1020.07
1008.22 1008.97 1009.83 1010.77 1011.72 1012.62 1013.44 1014.14 1014.71 1015.17 1015.54 1015.86 1016.15 1016.43 1016.70 1016.96 1017.19 1017.39 1017.57 1017.75 1017.94 1018.15 1018.38 1018.62 1018.82 1018.96 1018.99 1018.91 1018.70 1018.42 1018.11 1017.84 1017.65 1017.60 1017.70 1017.92 1018.25 1018.62 1019.00 1019.34 1019.65 1019.92 1020.17
1008.59 1009.31 1010.13 1011.01 1011.92 1012.78 1013.57 1014.26 1014.84 1015.33 1015.73 1016.08 1016.40 1016.68 1016.94 1017.18 1017.38 1017.55 1017.71 1017.88 1018.07 1018.28 1018.52 1018.76 1018.96 1019.07 1019.07 1018.94 1018.69 1018.36 1018.02 1017.73 1017.54 1017.51 1017.62 1017.88 1018.23 1018.63 1019.02 1019.38 1019.70 1019.98 1020.23
1008.93 1009.62 1010.39 1011.21 1012.04 1012.84 1013.57 1014.22 1014.79 1015.27 1015.70 1016.09 1016.44 1016.75 1017.03 1017.26 1017.45 1017.61 1017.75 1017.89 1018.06 1018.26 1018.48 1018.69 1018.86 1018.95 1018.91 1018.75 1018.48 1018.14 1017.80 1017.52 1017.36 1017.36 1017.51 1017.81 1018.19 1018.61 1019.03 1019.40 1019.72 1020.00 1020.24
1009.13 1009.80 1010.53 1011.28 1012.03 1012.74 1013.40 1013.98 1014.51 1014.98 1015.42 1015.84 1016.23 1016.59 1016.91 1017.17 1017.37 1017.53 1017.65 1017.77 1017.91 1018.07 1018.25 1018.43 1018.56 1018.62 1018.56 1018.39 1018.12 1017.80 1017.49 1017.24 1017.13 1017.17 1017.37 1017.71 1018.13 1018.57 1019.00 1019.39 1019.71 1019.98 1020.22
1009.12 1009.79 1010.49 1011.20 1011.87 1012.49 1013.06 1013.57 1014.04 1014.48 1014.93 1015.37 1015.80 1016.22 1016.59 1016.89 1017.13 1017.30 1017.42 1017.52 1017.63 1017.75 1017.89 1018.03 1018.14 1018.17 1018.11 1017.96 1017.71 1017.43 1017.16 1016.97 1016.91 1016.99 1017.23 1017.60 1018.04 1018.50 1018.95 1019.34 1019.66 1019.93 1020.17
1008.90 1009.59 1010.29 1010.97 1011.59 1012.14 1012.63 1013.06 1013.47 1013.88 1014.30 1014.76 1015.22 1015.68 1016.10 1016.47 1016.75 1016.96 1017.09 1017.20 1017.29 1017.39 1017.50 1017.61 1017.70 1017.74 1017.69 1017.57 1017.37 1017.14 1016.93 1016.79 1016.76 1016.87 1017.12 1017.50 1017.94 1018.40 1018.85 1019.24 1019.57 1019.84 1020.08
1008.53 1009.26 1009.98 1010.66 1011.26 1011.77 1012.20 1012.57 1012.92 1013.28 1013.67 1014.12 1014.59 1015.08 1015.55 1015.96 1016.30 1016.55 1016.73 1016.86 1016.96 1017.06 1017.17 1017.28 1017.37 1017.43 1017.42 1017.34 1017.20 1017.02 1016.86 1016.75 1016.73 1016.84 1017.08 1017.43 1017.84 1018.29 1018.72 1019.11 1019.44 1019.72 1019.96
1008.09 1008.88 1009.64 1010.35 1010.96 1011.45 1011.86 1012.19 1012.49 1012.80 1013.15 1013.56 1014.03 1014.53 1015.02 1015.47 1015.86 1016.17 1016.40 1016.57 1016.70 1016.83 1016.96 1017.09 1017.22 1017.31 1017.35 1017.33 1017.24 1017.12 1016.98 1016.88 1016.85 1016.93 1017.12 1017.40 1017.76 1018.17 1018.57 1018.95 1019.28 1019.57 1019.82
1007.66 1008.50 1009.32 1010.08 1010.73 1011.25 1011.66 1011.98 1012.25 1012.52 1012.83 1013.19 1013.62 1014.09 1014.59 1015.06 1015.49 1015.85 1016.14 1016.37 1016.56 1016.74 1016.91 1017.09 1017.25 1017.39 1017.49 1017.52 1017.48 1017.39 1017.27 1017.16 1017.10 1017.11 1017.22 1017.42 1017.71 1018.04 1018.40 1018.76 1019.10 1019.40 1019.67
1007.27 1008.16 1009.04 1009.86 1010.57 1011.15 1011.60 1011.94 1012.20 1012.44 1012.70 1013.02 1013.40 1013.83 1014.31 1014.79 1015.24 1015.65 1016.00 1016.29 1016.54 1016.77 1016.99 1017.21 1017.42 1017.61 1017.75 1017.82 1017.83 1017.76 1017.65 1017.52 1017.40 1017.34 1017.36 1017.47 1017.66 1017.93 1018.24 1018.57 1018.91 1019.22 1019.52
1006.95 1007.86 1008.79 1009.67 1010.45 1011.10 1011.60 1011.98 1012.27 1012.51 1012.74 1013.02 1013.35 1013.75 1014.20 1014.67 1015.14 1015.59 1015.98 1016.32 1016.63 1016.91 1017.16 1017.42 1017.66 1017.87 1018.04 1018.14 1018.17 1018.12 1018.01 1017.86 1017.70 1017.57 1017.50 1017.52 1017.63 1017.83 1018.10 1018.41 1018.74 1019.07 1019.39
1006.70 1007.61 1008.55 1009.46 1010.30 1011.02 1011.60 1012.04 1012.38 1012.65 1012.89 1013.15 1013.46 1013.83 1014.26 1014.73 1015.21 1015.67 1016.10 1016.48 1016.82 1017.12 1017.39 1017.65 1017.89 1018.10 1018.28 1018.40 1018.44 1018.41 1018.30 1018.14 1017.95 1017.77 1017.64 1017.59 1017.63 1017.76 1017.99 1018.28 1018.62 1018.97 1019.31
1006.55 1007.41 1008.32 1009.23 1010.09 1010.87 1011.52 1012.05 1012.46 1012.79 1013.08 1013.37 1013.69 1014.06 1014.49 1014.96 1015.45 1015.93 1016.38 1016.77 1017.11 1017.40 1017.66 1017.89 1018.10 1018.28 1018.44 1018.56 1018.61 1018.58 1018.49 1018.33 1018.14 1017.94 1017.77 1017.67 1017.66 1017.76 1017.95 1018.22 1018.56 1018.92 1019.28
1006.55 1007.31 1008.14 1009.00 1009.85 1010.65 1011.37 1011.98 1012.49 1012.92 1013.30 1013.65 1014.03 1014.44 1014.90 1015.39 1015.90 1016.39 1016.83 1017.22 1017.54 1017.79 1017.99 1018.16 1018.31 1018.44 1018.56 1018.65 1018.70 1018.69 1018.62 1018.48 1018.31 1018.11 1017.94 1017.82 1017.77 1017.83 1017.99 1018.25 1018.57 1018.94 1019.32
1006.78 1007.40 1008.10 1008.87 1009.66 1010.46 1011.21 1011.91 1012.52 1013.07 1013.56 1014.03 1014.50 1014.99 1015.50 1016.03 1016.56 1017.06 1017.49 1017.85 1018.12 1018.31 1018.44 1018.52 1018.59 1018.65 1018.71 1018.77 1018.81 1018.81 1018.77 1018.67 1018.53 1018.36 1018.19 1018.06 1017.99 1018.02 1018.14 1018.36 1018.66 1019.02 1019.40
1007.36 1007.79 1008.32 1008.95 1009.65 1010.41 1011.18 1011.93 1012.65 1013.32 1013.94 1014.54 1015.12 1015.71 1016.30 1016.88 1017.43 1017.93 1018.34 1018.66 1018.87 1018.99 1019.02 1019.02 1018.99 1018.97 1018.98 1019.00 1019.03 1019.05 1019.04 1018.98 1018.87 1018.73 1018.58 1018.44 1018.34 1018.32 1018.39 1018.56 1018.82 1019.15 1019.51
1008.33 1008.57 1008.92 1009.39 1009.97 1010.65 1011.40 1012.19 1012.98 1013.76 1014.51 1015.23 1015.93 1016.61 1017.27 1017.90 1018.47 1018.96 1019.35 1019.62 1019.76 1019.80 1019.75 1019.66 1019.55 1019.46 1019.41 1019.40 1019.43 1019.46 1019.47 1019.45 1019.38 1019.26 1019.11 1018.95 1018.81 1018.73 1018.73 1018.83 1019.01 1019.28 1019.61
1009.69 1009.76 1009.93 1010.24 1010.69 1011.29 1011.99 1012.78 1013.62 1014.47 1015.30 1016.12 1016.91 1017.66 1018.37 1019.01 1019.59 1020.06 1020.41 1020.62 1020.71 1020.68 1020.57 1020.41 1020.24 1020.10 1020.02 1019.99 1020.00 1020.04 1020.08 1020.08 1020.03 1019.92 1019.76 1019.57 1019.38 1019.22 1019.13 1019.13 1019.22 1019.41 1019.67
1011.37 1011.31 1011.34 1011.51 1011.84 1012.34 1012.99 1013.74 1014.58 1015.45 1016.32 1017.18 1018.01 1018.78 1019.50 1020.13 1020.68 1021.11 1021.41 1021.58 1021.61 1021.54 1021.39 1021.19 1020.99 1020.83 1020.72 1020.68 1020.70 1020.74 1020.79 1020.81 1020.77 1020.65 1020.47 1020.24 1019.98 1019.74 1019.55 1019.43 1019.42 1019.50 1019.68
Thickness
5824 5819 5812 5808 5804 5799 5795 5792 5789 5786 5783 5781 5778 5776 5774 5772 5771 5769 5767 5765 5763 5761 5760 5758 5757 5756 5755 5755 5754 5754 5753 5752 5752 5751 5750 5748 5747 5746 5745 5744 5743 5741 5739
5826 5817 5810 5806 5801 5796 5792 5788 5785 5782 5780 5777 5775 5772 5770 5768 5767 5765 5763 5761 5759 5758 5756 5755 5754 5753 5752 5752 5751 5750 5750 5749 5749 5748 5747 5745 5743 5742 5741 5742 5741 5738 5736
5823 5814 5808 5803 5798 5793 5789 5785 5782 5779 5776 5774 5771 5769 5767 5765 5763 5761 5759 5758 5756 5755 5753 5752 5751 5750 5750 5749 5748 5747 5747 5746 5745 5744 5744 5743 5741 5739 5738 5738 5736 5734 5732
5820 5812 5806 5800 5795 5790 5786 5782 5778 5775 5773 5770 5768 5765 5763 5761 5759 5758 5756 5754 5753 5752 5750 5750 5749 5748 5747 5746 5746 5745 5745 5744 5743 5742 5741 5741 5739 5736 5735 5733 5732 5731 5729
5817 5810 5801 5797 5792 5787 5783 5779 5775 5772 5770 5767 5765 5762 5760 5758 5756 5754 5753 5751 5750 5749 5748 5747 5746 5745 5745 5744 5743 5743 5742 5741 5740 5740 5740 5740 5737 5733 5732 5730 5728 5727 5725
5814 5805 5797 5793 5789 5784 5780 5776 5772 5769 5767 5764 5762 5759 5757 5755 5753 5751 5750 5748 5747 5746 5745 5744 5744 5743 5742 5742 5741 5741 5740 5739 5738 5740 5739 5738 5734 5731 5729 5726 5725 5723 5721
5812 5801 5793 5788 5785 5781 5776 5773 5769 5766 5764 5762 5759 5757 5754 5753 5751 5749 5747 5746 5745 5744 5743 5742 5741 5741 5740 5739 5739 5739 5738 5737 5737 5738 5737 5736 5732 5728 5726 5724 5722 5720 5718
5809 5798 5788 5784 5781 5777 5773 5770 5767 5764 5761 5759 5757 5754 5752 5750 5749 5747 5745 5744 5743 5742 5741 5740 5739 5739 5738 5737 5737 5736 5736 5736 5738 5738 5737 5733 5729 5726 5724 5721 5719 5717 5715
5807 5795 5786 5781 5777 5773 5770 5767 5764 5761 5759 5757 5754 5752 5750 5749 5747 5745 5744 5742 5741 5740 5739 5738 5738 5737 5737 5736 5735 5735 5735 5735 5734 5735 5734 5730 5726 5724 5721 5718 5716 5714 5712
5803 5793 5786 5780 5775 5770 5766 5763 5761 5759 5757 5755 5753 5751 5749 5747 5745 5744 5742 5741 5739 5738 5737 5737 5737 5736 5735 5735 5734 5734 5733 5733 5734 5733 5730 5726 5724 5722 5718 5716 5714 5711 5709
5799 5791 5787 5782 5776 5771 5766 5762 5758 5756 5755 5753 5751 5749 5748 5747 5746 5743 5743 5740 5738 5737 5736 5736 5736 5735 5735 5734 5734 5733 5732 5732 5734 5731 5726 5724 5722 5719 5716 5713 5711 5709 5707
5794 5791 5788 5784 5778 5774 5770 5762 5758 5756 5754 5753 5752 5749 5748 5749 5748 5747 5743 5740 5738 5737 5736 5735 5735 5735 5735 5735 5734 5733 5732 5733 5733 5729 5723 5721 5721 5718 5714 5711 5709 5707 5704
5796 5792 5791 5786 5781 5778 5772 5764 5761 5759 5755 5754 5754 5751 5750 5750 5749 5747 5743 5740 5738 5738 5737 5736 5735 5735 5737 5737 5738 5735 5735 5735 5734 5729 5723 5721 5720 5717 5713 5709 5706 5704 5702
5797 5793 5792 5788 5783 5780 5775 5769 5765 5763 5758 5757 5756 5753 5751 5750 5751 5750 5746 5743 5741 5740 5739 5738 5737 5738 5739 5739 5738 5737 5737 5736 5733 5728 5723 5720 5718 5716 5712 5708 5705 5702 5700
5796 5794 5792 5789 5783 5780 5776 5771 5768 5766 5762 5760 5758 5754 5753 5752 5750 5751 5749 5746 5744 5743 5741 5740 5739 5739 5738 5737 5735 5735 5734 5733 5730 5726 5722 5719 5716 5714 5711 5707 5703 5700 5697
5795 5791 5792 5788 5783 5779 5774 5771 5769 5767 5763 5762 5759 5755 5753 5752 5751 5749 5747 5744 5742 5741 5739 5738 5737 5735 5733 5732 5731 5730 5729 5728 5725 5723 5719 5716 5713 5711 5708 5704 5701 5698 5695
5796 5791 5790 5786 5782 5777 5773 5770 5768 5767 5764 5762 5758 5756 5753 5751 5749 5747 5744 5742 5740 5738 5736 5734 5733 5731 5729 5727 5725 5725 5725 5723 5720 5717 5714 5712 5709 5707 5704 5701 5698 5695 5692
5798 5790 5788 5786 5780 5775 5772 5768 5767 5765 5763 5760 5758 5755 5752 5749 5746 5744 5741 5739 5737 5734 5732 5730 5727 5724 5722 5721 5719 5719 5719 5717 5715 5712 5709 5708 5706 5703 5700 5697 5694 5691 5688
5796 5789 5785 5782 5777 5772 5769 5765 5764 5762 5760 5758 5755 5752 5748 5746 5743 5740 5737 5734 5732 5730 5727 5724 5721 5717 5714 5712 5711 5712 5711 5710 5708 5707 5704 5702 5700 5697 5694 5691 5689 5686 5683
5793 5787 5782 5778 5774 5769 5765 5761 5759 5757 5755 5753 5751 5748 5745 5741 5738 5735 5731 5729 5726 5723 5719 5716 5713 5710 5707 5705 5703 5702 5702 5701 5700 5698 5697 5695 5692 5690 5687 5684 5681 5678 5675
5785 5780 5775 5772 5769 5765 5760 5756 5752 5749 5748 5746 5744 5741 5738 5735 5732 5729 5726 5723 5719 5715 5712 5709 5705 5701 5699 5697 5693 5691 5692 5692 5691 5689 5687 5686 5684 5681 5678 5676 5673 5670 5666
5775 5771 5768 5765 5764 5761 5757 5754 5750 5746 5743 5739 5735 5732 5729 5727 5724 5722 5719 5716 5713 5708 5704 5701 5698 5694 5691 5689 5685 5681 5677 5677 5679 5679 5677 5675 5674 5671 5669 5667 5663 5660 5657
5760 5761 5761 5760 5759 5756 5753 5749 5745 5739 5735 5730 5725 5721 5718 5716 5713 5710 5708 5706 5704 5700 5696 5693 5690 5687 5683 5680 5678 5674 5669 5666 5667 5667 5665 5664 5663 5661 5658 5656 5653 5649 5646
5749 5752 5752 5752 5751 5750 5747 5742 5736 5730 5725 5720 5714 5709 5707 5705 5702 5698 5696 5695 5694 5691 5688 5686 5684 5681 5676 5671 5669 5668 5665 5662 5658 5655 5655 5654 5653 5650 5648 5645 5642 5638 5634
5737 5740 5741 5741 5740 5741 5740 5736 5730 5723 5716 5711 5705 5700 5696 5693 5690 5687 5685 5683 5681 5679 5676 5675 5674 5670 5667 5664 5660 5658 5657 5654 5652 5648 5644 5643 5641 5639 5636 5633 5630 5625 5621
5722 5726 5728 5728 5728 5729 5728 5725 5720 5714 5709 5702 5695 5689 5684 5680 5677 5674 5671 5671 5668 5665 5663 5661 5659 5656 5654 5651 5647 5645 5643 5641 5639 5637 5633 5630 5627 5625 5623 5620 5617 5612 5607